Location: Zagreb
(45.8000°N, 16.0000°E)
Time: 17:49:16
(UTC+01:00)

N. Korean satellite - Pass Details

Date: 10 December 2021
Orbit: 447 x 491 km, 97.3° (Epoch: 23 January)

Event Time Altitude Azimuth Distance (km) Brightness Sun altitude
Rises 16:41:05 0° 182° (S) 2,505 10.6 -5.3°
Reaches altitude 10° 16:43:12 10° 189° (S) 1,624 9.8 -5.6°
Maximum altitude 16:46:31 41° 261° (W) 684 8.0 -6.1°
Drops below altitude 10° 16:49:50 10° 334° (NNW) 1,613 9.2 -6.7°
Sets 16:51:56 0° 341° (NNW) 2,486 10.1 -7.0°
